Location: Ústí nad Labem
(50.6611°N, 14.0531°E)
Time: 22:02:52
(UTC+02:00)

Envisat - Pass Details

Date: 08 March 2024
Orbit: 762 x 764 km, 98.3° (Epoch: 13 April)

Event Time Altitude Azimuth Distance (km) Brightness Sun altitude
Rises 05:15:25 0° 4° (N) 3,243 6.4 -13.0°
Reaches altitude 10° 05:18:19 10° 348° (NNW) 2,312 5.4 -12.5°
Maximum altitude 05:21:49 19° 304° (NW) 1,756 4.4 -12.0°
Enters shadow 05:23:51 15° 275° (W) 1,955 4.5 -11.7°
